Weather History for KPOF - November, 2012

Change the Weather History Date:

Monday, November 19, 2012

  Actual Average (KCGI) Record (KCGI)
Temperature  
Mean Temperature 50 °F 45 °F  
Max Temperature 62 °F 56 °F 76 °F (1985)
Min Temperature 37 °F 35 °F 20 °F (2000)
Degree Days  
Heating Degree Days 16 20  
Month to date heating degree days 303  
Since 1 July heating degree days 606  
Cooling Degree Days 0 0  
Month to date cooling degree days 0  
Year to date cooling degree days 1451  
Moisture  
Dew Point 40 °F    
Average Humidity 68    
Maximum Humidity 93    
Minimum Humidity 44    
Precipitation  
Precipitation 0.00 in 0.16 in 6.05 in (1991)
Month to date precipitation 2.71  
Year to date precipitation 40.83  
Sea Level Pressure  
Sea Level Pressure 30.25 in    
Wind  
Wind Speed 2 mph (SSW)    
Max Wind Speed 10 mph    
Max Gust Speed -    
Visibility 9 miles    
Events Snow    
T = Trace of Precipitation, MM = Missing Value Source: NWS Daily Summary

Daily Weather History Graph

Daily Weather History Graph

Search for Another Location

Airport or City:

Trip Planner

Search our weather history database for the weather conditions in past years. The results will help you decide how hot, cold, wet, or windy it might be!

Date:

Astronomy

Nov. 19, 2012 Rise Set
Actual Time 6:44 AM CST 4:49 PM CST
Civil Twilight 6:16 AM CST 5:17 PM CST
Nautical Twilight 5:44 AM CST 5:48 PM CST
Astronomical Twilight 5:13 AM CST 6:19 PM CST
Moon 11:50 AM CST (11/19) 11:12 PM CST (11/19)
Length of Visible Light 11h 01m
Length of Day
10h 05m
Waxing Crescent, 41% of the Moon is Illuminated
Nov 19
Waxing Crescent
Nov 20
First Quarter
Nov 28
Full
Dec 6
Last Quarter
Dec 13
New

Hourly Weather History & Observations

Time (CST) Temp. Windchill Dew Point Humidity Pressure Visibility Wind Dir Wind Speed Gust Speed Precip Events Conditions
12:53 AM 37.9 °F - 35.1 °F 89% 30.32 in 9.0 mi Calm Calm - N/A   Clear
1:53 AM 39.0 °F - 35.1 °F 86% 30.31 in 9.0 mi Calm Calm - N/A   Clear
2:53 AM 39.0 °F - 35.1 °F 86% 30.31 in 10.0 mi Calm Calm - N/A   Clear
3:53 AM 37.9 °F - 34.0 °F 86% 30.29 in 9.0 mi Calm Calm - 0.00 in   Clear
4:53 AM 39.0 °F - 35.1 °F 86% 30.30 in 9.0 mi Calm Calm - N/A   Clear
5:53 AM 37.0 °F 34.5 °F 35.1 °F 93% 30.30 in 8.0 mi NNW 3.5 mph - 0.00 in Snow Light Snow
6:53 AM 37.9 °F - 35.1 °F 89% 30.31 in 7.0 mi Calm Calm - 0.00 in   Clear
7:53 AM 41.0 °F - 37.0 °F 86% 30.32 in 7.0 mi Calm Calm - N/A   Clear
8:53 AM 50.0 °F - 41.0 °F 71% 30.32 in 8.0 mi Calm Calm - N/A   Clear
9:53 AM 55.0 °F - 39.0 °F 55% 30.32 in 10.0 mi SSW 4.6 mph - N/A   Clear
10:53 AM 57.9 °F - 37.9 °F 47% 30.30 in 10.0 mi SSW 6.9 mph - N/A   Clear
11:53 AM 57.0 °F - 39.9 °F 53% 30.28 in 10.0 mi SSW 5.8 mph - N/A   Overcast
12:53 PM 59.0 °F - 39.9 °F 49% 30.25 in 10.0 mi SSW 8.1 mph - N/A   Overcast
1:53 PM 61.0 °F - 39.9 °F 46% 30.22 in 10.0 mi SSW 10.4 mph - N/A   Overcast
2:53 PM 62.1 °F - 39.9 °F 44% 30.21 in 5.0 mi WSW 6.9 mph - N/A   Haze
3:53 PM 59.0 °F - 41.0 °F 51% 30.20 in 10.0 mi SSW 5.8 mph - N/A   Overcast
4:53 PM 57.9 °F - 42.1 °F 56% 30.20 in 10.0 mi South 4.6 mph - N/A   Overcast
5:53 PM 57.0 °F - 42.1 °F 57% 30.21 in 10.0 mi Calm Calm - N/A   Overcast
6:53 PM 57.0 °F - 43.0 °F 59% 30.19 in 10.0 mi South 3.5 mph - N/A   Overcast
7:53 PM 55.0 °F - 45.0 °F 69% 30.19 in 10.0 mi Calm Calm - N/A   Overcast
8:53 PM 55.0 °F - 45.0 °F 69% 30.19 in 10.0 mi Calm Calm - 0.00 in   Overcast
9:53 PM 55.0 °F - 45.0 °F 69% 30.16 in 10.0 mi South 5.8 mph - N/A   Overcast
10:53 PM 55.9 °F - 44.1 °F 64% 30.16 in 10.0 mi Calm Calm - N/A   Overcast
11:53 PM 54.0 °F - 43.0 °F 66% 30.15 in 10.0 mi SW 3.5 mph - N/A   Partly Cloudy